Chino, CA

5:46 AM PDT on August 27, 2016 (GMT -0700)
Chino

Weather History for KCNO - April, 2014

Change the Weather History Date:

Monday, April 28, 2014

  Actual Average Record
Temperature  
Mean Temperature 66 °F -  
Max Temperature 84 °F 73 °F 97 °F (2008)
Min Temperature 48 °F 45 °F 39 °F (2003)
Cooling Degree Days 1    
Growing Degree Days 16 (Base 50)    
Moisture  
Dew Point 46 °F    
Average Humidity 54    
Maximum Humidity 100    
Minimum Humidity 21    
Precipitation  
Precipitation 0.00 in - - ()
Sea Level Pressure  
Sea Level Pressure 29.97 in    
Wind  
Wind Speed 2 mph (WNW)    
Max Wind Speed 10 mph    
Max Gust Speed -    
Visibility 9 miles    
Events      
Averages and records for this station are not official NWS values.
T = Trace of Precipitation, MM = Missing Value Source: NWS Daily Summary

Daily Weather History Graph

Daily Weather History Graph

Search for Another Location

Airport or City:

Trip Planner

Search our weather history database for the weather conditions in past years. The results will help you decide how hot, cold, wet, or windy it might be!

Date:

Astronomy

Apr. 28, 2014 Rise Set
Actual Time 6:04 AM PDT 7:32 PM PDT
Civil Twilight 5:38 AM PDT 7:58 PM PDT
Nautical Twilight 5:06 AM PDT 8:30 PM PDT
Astronomical Twilight 4:33 AM PDT 9:03 PM PDT
Moon 5:43 AM PDT (4/28) 7:16 PM PDT (4/28)
Length of Visible Light 14h 20m
Length of Day
13h 27m
Waning Crescent, 0% of the Moon is Illuminated
Apr 28
Waning Crescent
Apr 28
New
May 6
First Quarter
May 14
Full
May 21
Last Quarter

Hourly Weather History & Observations

Time (PDT) Temp. Dew Point Humidity Pressure Visibility Wind Dir Wind Speed Gust Speed Precip Events Conditions
1:53 AM 51.1 °F 46.9 °F 86% 30.00 in 9.0 mi Calm Calm - N/A   Clear
3:53 AM 50.0 °F 46.9 °F 89% 29.99 in 8.0 mi Calm Calm - N/A   Clear
4:53 AM 48.0 °F 46.0 °F 93% 30.00 in 7.0 mi NE 3.5 mph - N/A   Clear
5:53 AM 48.0 °F 46.0 °F 93% 30.00 in 6.0 mi SSE 3.5 mph - N/A   Clear
6:53 AM 48.0 °F 48.0 °F 100% 30.03 in 10.0 mi Calm Calm - N/A   Partly Cloudy
7:53 AM 55.0 °F 50.0 °F 83% 30.04 in 10.0 mi Calm Calm - N/A   Partly Cloudy
8:53 AM 60.1 °F 48.9 °F 67% 30.03 in 10.0 mi Calm Calm - N/A   Partly Cloudy
9:53 AM 64.0 °F 48.9 °F 58% 30.01 in 7.0 mi Calm Calm - N/A   Clear
10:53 AM 70.0 °F 45.0 °F 41% 30.01 in 10.0 mi Calm Calm - N/A   Clear
11:53 AM 75.0 °F 46.9 °F 37% 29.99 in 10.0 mi Variable 4.6 mph - N/A   Partly Cloudy
12:53 PM 78.1 °F 46.9 °F 33% 29.97 in 10.0 mi WSW 9.2 mph - N/A   Partly Cloudy
2:53 PM 82.0 °F 43.0 °F 25% 29.94 in 10.0 mi NW 6.9 mph - N/A   Clear
3:53 PM 84.0 °F 45.0 °F 25% 29.91 in 10.0 mi West 4.6 mph - N/A   Partly Cloudy
4:53 PM 84.0 °F 44.1 °F 25% 29.89 in 10.0 mi NW 5.8 mph - N/A   Partly Cloudy
5:53 PM 84.0 °F 43.0 °F 24% 29.88 in 10.0 mi Calm Calm - N/A   Partly Cloudy
6:53 PM 80.1 °F 48.9 °F 34% 29.89 in 10.0 mi WSW 10.4 mph - N/A   Scattered Clouds
8:53 PM 70.0 °F 45.0 °F 41% 29.92 in 10.0 mi Variable 3.5 mph - N/A   Clear
9:53 PM 69.1 °F 46.9 °F 45% 29.96 in 9.0 mi North 3.5 mph - N/A   Clear
10:53 PM 64.9 °F 48.0 °F 54% 29.97 in 8.0 mi Calm Calm - N/A   Clear
11:53 PM 75.0 °F 32.0 °F 21% 29.97 in 10.0 mi Variable 4.6 mph - N/A   Clear